Time,TemperatureF,DewpointF,PressureIn,WindDirection,WindDirectionDegrees,WindSpeedMPH,WindSpeedGustMPH,Humidity,HourlyPrecipIn,Conditions,Clouds,dailyrainin,SoftwareType,DateUTC
2013-05-31 00:00:00,50.8,45.5,30.18,SSW,203,0.4,0.4,82,0.00,,,0.00,WUHU216HW,2013-05-31 07:00:00,
2013-05-31 00:05:00,50.6,45.3,30.15,SSE,158,0.9,2.2,82,0.00,,,0.00,WUHU216HW,2013-05-31 07:05:00,
2013-05-31 00:10:00,50.6,45.3,30.15,SSE,158,0.9,2.2,82,0.00,,,0.00,WUHU216HW,2013-05-31 07:10:00,
2013-05-31 01:00:00,49.9,44.6,30.19,WSW,248,1.3,1.3,82,0.00,,,0.00,WUHU216HW,2013-05-31 08:00:00,
2013-05-31 01:05:00,49.9,44.6,30.15,SW,225,1.3,2.0,82,0.00,,,0.00,WUHU216HW,2013-05-31 08:05:00,
2013-05-31 01:10:00,49.9,44.6,30.15,SW,225,1.3,2.0,82,0.00,,,0.00,WUHU216HW,2013-05-31 08:10:00,
2013-05-31 02:00:00,49.5,44.8,30.20,WSW,248,1.6,1.6,84,0.00,,,0.00,WUHU216HW,2013-05-31 09:00:00,
2013-05-31 02:05:00,49.7,45.3,30.16,SSW,203,0.4,2.2,85,0.00,,,0.00,WUHU216HW,2013-05-31 09:05:00,
2013-05-31 02:10:00,49.7,45.3,30.16,SSW,203,0.4,2.2,85,0.00,,,0.00,WUHU216HW,2013-05-31 09:10:00,
2013-05-31 03:00:00,49.5,44.8,30.20,NNW,338,0.0,0.0,84,0.00,,,0.00,WUHU216HW,2013-05-31 10:00:00,
2013-05-31 03:05:00,49.5,44.8,30.17,WSW,248,0.0,0.4,84,0.00,,,0.00,WUHU216HW,2013-05-31 10:05:00,
2013-05-31 03:10:00,49.5,44.8,30.17,WSW,248,0.0,0.4,84,0.00,,,0.00,WUHU216HW,2013-05-31 10:10:00,
2013-05-31 04:00:00,49.5,45.1,30.20,WSW,248,0.0,0.0,85,0.00,,,0.00,WUHU216HW,2013-05-31 11:00:00,
2013-05-31 04:05:00,49.5,45.1,30.17,WSW,248,0.0,0.0,85,0.00,,,0.00,WUHU216HW,2013-05-31 11:05:00,
2013-05-31 04:10:00,49.5,45.1,30.17,WSW,248,0.0,0.0,85,0.00,,,0.00,WUHU216HW,2013-05-31 11:10:00,
2013-05-31 05:00:00,49.3,44.9,30.20,SW,225,0.7,0.7,85,0.00,,,0.00,WUHU216HW,2013-05-31 12:00:00,
2013-05-31 05:05:00,49.3,45.0,30.16,SW,225,1.1,1.3,85,0.00,,,0.00,WUHU216HW,2013-05-31 12:05:00,
2013-05-31 05:10:00,49.3,45.0,30.16,SW,225,1.1,1.3,85,0.00,,,0.00,WUHU216HW,2013-05-31 12:10:00,
2013-05-31 06:00:00,49.7,45.9,30.23,WSW,248,0.0,0.0,87,0.00,,,0.00,WUHU216HW,2013-05-31 13:00:00,
2013-05-31 06:05:00,49.7,45.9,30.20,WSW,248,0.0,0.2,87,0.00,,,0.00,WUHU216HW,2013-05-31 13:05:00,
2013-05-31 06:10:00,49.7,45.9,30.20,WSW,248,0.0,0.2,87,0.00,,,0.00,WUHU216HW,2013-05-31 13:10:00,
2013-05-31 07:00:00,50.8,46.6,30.24,North,0,0.4,0.4,86,0.00,,,0.00,WUHU216HW,2013-05-31 14:00:00,
2013-05-31 07:05:00,50.8,47.0,30.22,NW,315,0.2,0.9,87,0.00,,,0.00,WUHU216HW,2013-05-31 14:05:00,
2013-05-31 07:10:00,50.8,47.0,30.21,WSW,248,0.7,1.1,87,0.00,,,0.00,WUHU216HW,2013-05-31 14:10:00,
2013-05-31 07:15:00,50.8,47.0,30.21,WSW,248,0.7,1.1,87,0.00,,,0.00,WUHU216HW,2013-05-31 14:15:00,
2013-05-31 08:00:00,52.4,48.2,30.25,WSW,248,3.4,3.4,86,0.00,,,0.00,WUHU216HW,2013-05-31 15:00:00,
2013-05-31 08:05:00,52.4,48.2,30.24,SW,225,0.4,3.4,86,0.00,,,0.00,WUHU216HW,2013-05-31 15:05:00,
2013-05-31 08:10:00,52.4,48.2,30.24,SW,225,0.4,3.4,86,0.00,,,0.00,WUHU216HW,2013-05-31 15:10:00,
2013-05-31 09:00:00,54.0,49.2,30.26,NNW,338,0.9,0.9,84,0.00,,,0.00,WUHU216HW,2013-05-31 16:00:00,
2013-05-31 09:05:00,54.0,49.3,30.24,WSW,248,1.8,1.8,84,0.00,,,0.00,WUHU216HW,2013-05-31 16:05:00,
2013-05-31 09:10:00,54.0,49.3,30.24,WSW,248,1.8,1.8,84,0.00,,,0.00,WUHU216HW,2013-05-31 16:10:00,
2013-05-31 10:00:00,56.7,51.0,30.25,North,0,4.7,4.7,81,0.00,,,0.00,WUHU216HW,2013-05-31 17:00:00,
2013-05-31 10:05:00,56.7,51.0,30.25,North,0,4.7,4.7,81,0.00,,,0.00,WUHU216HW,2013-05-31 17:05:00,
2013-05-31 11:00:00,59.9,50.6,30.24,North,0,1.8,1.8,71,0.00,,,0.00,WUHU216HW,2013-05-31 18:00:00,
2013-05-31 11:05:00,59.9,50.6,30.24,North,0,1.8,1.8,71,0.00,,,0.00,WUHU216HW,2013-05-31 18:05:00,
2013-05-31 12:00:00,61.4,51.2,30.24,NNW,338,2.7,2.7,69,0.00,,,0.01,WUHU216HW,2013-05-31 19:00:00,
2013-05-31 12:05:00,61.4,51.2,30.24,NNW,338,2.7,2.7,69,0.00,,,0.01,WUHU216HW,2013-05-31 19:05:00,
2013-05-31 13:00:00,60.1,47.9,30.23,East,90,0.4,0.4,64,0.00,,,0.01,WUHU216HW,2013-05-31 20:00:00,
2013-05-31 13:05:00,60.3,48.6,30.21,North,0,0.4,3.4,65,0.00,,,0.01,WUHU216HW,2013-05-31 20:05:00,
2013-05-31 13:10:00,60.7,48.9,30.21,North,0,2.0,3.4,65,0.00,,,0.01,WUHU216HW,2013-05-31 20:10:00,
2013-05-31 13:15:00,60.7,48.9,30.21,North,0,2.0,2.0,65,0.00,,,0.01,WUHU216HW,2013-05-31 20:15:00,
2013-05-31 14:00:00,61.6,46.2,30.23,ENE,68,3.4,3.4,57,0.00,,,0.01,WUHU216HW,2013-05-31 21:00:00,
2013-05-31 14:05:00,61.2,46.4,30.21,ENE,68,3.4,4.0,58,0.00,,,0.01,WUHU216HW,2013-05-31 21:05:00,
2013-05-31 14:10:00,60.8,47.4,30.15,East,90,2.0,4.0,61,0.00,,,0.01,WUHU216HW,2013-05-31 21:10:00,
2013-05-31 14:15:00,61.0,47.5,30.21,North,0,1.8,3.6,61,0.00,,,0.01,WUHU216HW,2013-05-31 21:15:00,
2013-05-31 14:20:00,61.6,46.2,30.10,NE,45,1.8,2.2,57,0.00,,,0.01,WUHU216HW,2013-05-31 21:20:00,
2013-05-31 14:25:00,61.6,46.2,30.10,NE,45,1.8,1.8,57,0.00,,,0.01,WUHU216HW,2013-05-31 21:25:00,
2013-05-31 15:00:00,62.1,48.5,30.22,NNE,23,1.8,1.8,61,0.00,,,0.01,WUHU216HW,2013-05-31 22:00:00,
2013-05-31 15:05:00,61.9,48.0,30.21,ESE,113,1.6,2.5,60,0.00,,,0.01,WUHU216HW,2013-05-31 22:05:00,
2013-05-31 15:10:00,61.6,47.3,30.22,NE,45,1.6,3.1,59,0.00,,,0.01,WUHU216HW,2013-05-31 22:10:00,
2013-05-31 15:15:00,61.6,47.3,30.22,NE,45,1.6,3.1,59,0.00,,,0.01,WUHU216HW,2013-05-31 22:15:00,
2013-05-31 16:00:00,62.6,47.6,30.21,NE,45,2.5,2.5,58,0.00,,,0.01,WUHU216HW,2013-05-31 23:00:00,
2013-05-31 16:05:00,62.1,48.2,30.21,ENE,68,2.0,2.5,60,0.00,,,0.01,WUHU216HW,2013-05-31 23:05:00,
2013-05-31 16:10:00,62.1,48.2,30.21,East,90,2.5,2.5,60,0.00,,,0.01,WUHU216HW,2013-05-31 23:10:00,
2013-05-31 16:15:00,62.1,48.2,30.21,East,90,2.5,2.5,60,0.00,,,0.01,WUHU216HW,2013-05-31 23:15:00,
2013-05-31 17:00:00,61.6,48.1,30.20,ESE,113,0.4,0.4,61,0.00,,,0.01,WUHU216HW,2013-06-01 00:00:00,
2013-05-31 17:05:00,61.6,48.2,30.19,NE,45,1.1,1.3,61,0.00,,,0.01,WUHU216HW,2013-06-01 00:05:00,
2013-05-31 17:10:00,61.6,47.6,30.19,East,90,1.6,1.8,60,0.00,,,0.01,WUHU216HW,2013-06-01 00:10:00,
2013-05-31 17:15:00,61.6,47.6,30.19,East,90,1.3,1.8,60,0.00,,,0.01,WUHU216HW,2013-06-01 00:15:00,
2013-05-31 17:20:00,61.6,47.6,30.19,East,90,1.3,1.3,60,0.00,,,0.01,WUHU216HW,2013-06-01 00:20:00,
2013-05-31 18:00:00,62.5,47.4,30.19,NNE,23,0.7,0.7,58,0.00,,,0.01,WUHU216HW,2013-06-01 01:00:00,
2013-05-31 18:05:00,62.6,47.2,30.18,East,90,1.6,3.1,57,0.00,,,0.01,WUHU216HW,2013-06-01 01:05:00,
2013-05-31 18:10:00,62.6,47.2,30.16,ESE,113,2.5,3.6,57,0.00,,,0.01,WUHU216HW,2013-06-01 01:10:00,
2013-05-31 18:15:00,62.6,47.2,30.16,ESE,113,2.5,3.6,57,0.00,,,0.01,WUHU216HW,2013-06-01 01:15:00,
2013-05-31 19:00:00,60.7,48.4,30.17,SSW,203,0.2,0.2,64,0.00,,,0.01,WUHU216HW,2013-06-01 02:00:00,
2013-05-31 19:05:00,60.8,48.6,30.17,SSW,203,0.0,0.4,64,0.00,,,0.01,WUHU216HW,2013-06-01 02:05:00,
2013-05-31 19:10:00,60.8,48.6,30.17,South,180,0.0,0.4,64,0.00,,,0.01,WUHU216HW,2013-06-01 02:10:00,
2013-05-31 19:15:00,60.8,48.6,30.17,South,180,0.0,0.0,64,0.00,,,0.01,WUHU216HW,2013-06-01 02:15:00,
2013-05-31 20:00:00,63.2,49.5,30.17,ENE,68,0.0,0.0,61,0.00,,,0.01,WUHU216HW,2013-06-01 03:00:00,
2013-05-31 20:05:00,63.4,49.7,30.17,ENE,68,0.0,0.4,61,0.00,,,0.01,WUHU216HW,2013-06-01 03:05:00,
2013-05-31 20:10:00,63.4,49.7,30.17,ENE,68,0.0,0.4,61,0.00,,,0.01,WUHU216HW,2013-06-01 03:10:00,
2013-05-31 21:00:00,58.0,45.8,30.17,East,90,1.3,1.3,64,0.00,,,0.01,WUHU216HW,2013-06-01 04:00:00,
2013-05-31 21:01:00,58.0,45.8,30.16,ENE,68,0.7,1.3,64,0.00,,,0.01,WUHU216HW,2013-06-01 04:01:00,
2013-05-31 21:06:00,57.8,45.8,30.16,NE,45,1.1,1.3,64,0.00,,,0.01,WUHU216HW,2013-06-01 04:06:00,
2013-05-31 21:11:00,57.8,45.8,30.16,NE,45,1.1,1.1,64,0.00,,,0.01,WUHU216HW,2013-06-01 04:11:00,
2013-05-31 22:00:00,55.4,45.1,30.16,WSW,248,0.2,0.2,68,0.00,,,0.01,WUHU216HW,2013-06-01 05:00:00,
2013-05-31 22:05:00,55.3,45.3,30.16,WSW,248,0.9,0.9,69,0.00,,,0.01,WUHU216HW,2013-06-01 05:05:00,
2013-05-31 22:10:00,55.3,45.3,30.16,WSW,248,0.9,0.9,69,0.00,,,0.01,WUHU216HW,2013-06-01 05:10:00,
2013-05-31 23:00:00,52.9,44.2,30.15,East,90,0.2,0.2,72,0.00,,,0.01,WUHU216HW,2013-06-01 06:00:00,
2013-05-31 23:05:00,52.9,44.2,30.15,East,90,0.2,0.2,72,0.00,,,0.01,WUHU216HW,2013-06-01 06:05:00,